This is the latest recevied weather packets stored in our database for station/object SP4MAZ-13. If no packets are shown the sender has not sent any weather packets the latest 10 day(s).
| Time | Temp. | Humidity | Pressure | Rain* | Wind** | Luminosity | Snow |
|---|---|---|---|---|---|---|---|
| 1777534504 | 6.67° C | 52% | 2147.4 hPa | - | - | - | - |
| 1777534198 | 6.11° C | 54% | 2147.4 hPa | - | - | - | - |
| 1777533895 | 6.11° C | 54% | 2147.4 hPa | - | - | - | - |
| 1777533591 | 6.11° C | 54% | 2147.4 hPa | - | - | - | - |
| 1777533288 | 6.11° C | 55% | 2147.4 hPa | - | - | - | - |
| 1777532984 | 6.11° C | 55% | 2147.4 hPa | - | - | - | - |
| 1777532681 | 5.56° C | 57% | 2147.4 hPa | - | - | - | - |
| 1777532377 | 6.11° C | 59% | 2147.4 hPa | - | - | - | - |
| 1777532074 | 5° C | 61% | 2147.4 hPa | - | - | - | - |
| 1777531773 | 5.56° C | 63% | 2147.4 hPa | - | - | - | - |
| 1777531470 | 5° C | 62% | 2147.4 hPa | - | - | - | - |
| 1777531167 | 4.44° C | 63% | 2147.4 hPa | - | - | - | - |
| 1777530863 | 4.44° C | 67% | 2147.4 hPa | - | - | - | - |
| 1777530560 | 4.44° C | 65% | 2147.4 hPa | - | - | - | - |
| 1777530257 | 4.44° C | 66% | 2147.4 hPa | - | - | - | - |
| 1777529956 | 5° C | 70% | 2147.4 hPa | - | - | - | - |
| 1777529653 | 5° C | 70% | 2147.4 hPa | - | - | - | - |
| 1777529350 | 4.44° C | 70% | 2147.4 hPa | - | - | - | - |
| 1777529046 | 4.44° C | 69% | 2147.4 hPa | - | - | - | - |
| 1777528742 | 4.44° C | 71% | 2147.4 hPa | - | - | - | - |
| 1777528439 | 5.56° C | 70% | 2147.4 hPa | - | - | - | - |
| 1777528138 | 5.56° C | 68% | 2147.4 hPa | - | - | - | - |
| 1777527834 | 5° C | 71% | 2147.4 hPa | - | - | - | - |
| 1777527531 | 5° C | 72% | 2147.4 hPa | - | - | - | - |
| 1777527228 | 5° C | 70% | 2147.4 hPa | - | - | - | - |
* Rain since midnight (hover to see other rain measurements)
** Current wind speed in m/s (hover to see current wind gust speed)